Jackson, MS

8:09 PM CDT on April 20, 2018 (GMT -0500)
Jackson-Evers International

Weather History for KJAN - December, 2011

Change the Weather History Date:

Thursday, December 15, 2011

  Actual Average Record
Temperature  
Mean Temperature 70 °F 48 °F  
Max Temperature 75 °F 58 °F 80 °F (1948)
Min Temperature 64 °F 37 °F 15 °F (1958)
Degree Days  
Heating Degree Days 0 18  
Month to date heating degree days 244 241  
Since 1 July heating degree days 646 649  
Cooling Degree Days 5 0  
Month to date cooling degree days 7 0  
Year to date cooling degree days 2681 2253  
Growing Degree Days 18 (Base 50)    
Moisture  
Dew Point 64 °F    
Average Humidity 83    
Maximum Humidity 93    
Minimum Humidity 73    
Precipitation  
Precipitation 0.18 in 0.16 in 1.98 in (1940)
Month to date precipitation 0.80 2.61  
Year to date precipitation 43.58 51.60  
Sea Level Pressure  
Sea Level Pressure 30.11 in    
Wind  
Wind Speed 8 mph (SSE)    
Max Wind Speed 15 mph    
Max Gust Speed 20 mph    
Visibility 8 miles    
Events Rain    
T = Trace of Precipitation, MM = Missing Value Source: NWS Daily Summary

Daily Weather History Graph

Daily Weather History Graph

Search for Another Location

Airport or City:

Astronomy

Dec. 15, 2011 Rise Set
Actual Time 6:53 AM CST 4:56 PM CST
Civil Twilight 6:26 AM CST 5:23 PM CST
Nautical Twilight 5:56 AM CST 5:54 PM CST
Astronomical Twilight 5:26 AM CST 6:24 PM CST
Moon 10:07 PM CST (12/15) 10:23 AM CST (12/15)
Length of Visible Light 10h 57m
Length of Day
10h 02m
Waning Gibbous, 74% of the Moon is Illuminated
Dec 15
Waning Gibbous
Dec 17
Last Quarter
Dec 24
New
Jan 1
First Quarter
Jan 9
Full

Hourly Weather History & Observations

Time (CST) Temp. Dew Point Humidity Pressure Visibility Wind Dir Wind Speed Gust Speed Precip Events Conditions
12:54 AM 66.0 °F 62.1 °F 87% 30.12 in 10.0 mi South 9.2 mph - N/A   Overcast
1:54 AM 66.9 °F 62.1 °F 84% 30.11 in 10.0 mi SSE 13.8 mph - N/A   Overcast
2:54 AM 66.0 °F 62.1 °F 87% 30.11 in 10.0 mi South 6.9 mph - N/A   Overcast
3:54 AM 64.9 °F 63.0 °F 93% 30.10 in 4.0 mi SSE 8.1 mph - 0.00 in Rain Light Rain
4:17 AM 64.4 °F 62.6 °F 94% 30.12 in 4.0 mi SSE 6.9 mph - 0.00 in Rain Light Rain
4:28 AM 64.4 °F 62.6 °F 94% 30.12 in 3.0 mi SSE 6.9 mph - 0.00 in Rain Light Rain
4:54 AM 64.0 °F 63.0 °F 96% 30.12 in 3.0 mi SSE 5.8 mph - 0.02 in Rain Light Rain
5:20 AM 64.4 °F 62.6 °F 94% 30.12 in 3.0 mi SSE 8.1 mph - 0.04 in Rain Light Rain
5:44 AM 64.4 °F 62.6 °F 94% 30.13 in 3.0 mi South 5.8 mph - 0.07 in   Overcast
5:54 AM 64.4 °F 62.6 °F 94% 30.14 in 6.0 mi South 5.8 mph - N/A   Overcast
6:14 AM 64.4 °F 62.6 °F 94% 30.14 in 7.0 mi SSE 5.8 mph - N/A   Overcast
6:54 AM 64.9 °F 63.0 °F 93% 30.13 in 6.0 mi SSE 11.5 mph - 0.00 in   Overcast
7:12 AM 64.4 °F 62.6 °F 94% 30.13 in 5.0 mi SSE 8.1 mph - N/A   Mostly Cloudy
7:54 AM 64.9 °F 63.0 °F 93% 30.13 in 10.0 mi SSE 10.4 mph - 0.00 in   Mostly Cloudy
8:09 AM 64.4 °F 64.4 °F 100% 30.15 in 10.0 mi SSE 10.4 mph - N/A   Mostly Cloudy
8:54 AM 66.2 °F 64.4 °F 94% 30.16 in 9.0 mi South 5.8 mph - N/A   Overcast
9:54 AM 66.9 °F 64.9 °F 93% 30.16 in 7.0 mi South 10.4 mph - N/A   Overcast
10:54 AM 68.0 °F 64.9 °F 90% 30.15 in 7.0 mi South 5.8 mph - 0.00 in   Overcast
11:51 AM 69.8 °F 66.2 °F 88% 30.13 in 10.0 mi South 10.4 mph - N/A   Overcast
11:54 AM 69.1 °F 64.9 °F 87% 30.12 in 10.0 mi South 11.5 mph - N/A   Overcast
12:54 PM 70.0 °F 64.9 °F 84% 30.10 in 10.0 mi South 9.2 mph - N/A   Mostly Cloudy
1:32 PM 73.4 °F 66.2 °F 78% 30.09 in 10.0 mi South 9.2 mph - N/A   Overcast
1:40 PM 71.6 °F 64.4 °F 78% 30.09 in 10.0 mi South 9.2 mph - N/A   Overcast
1:54 PM 72.0 °F 64.9 °F 78% 30.08 in 9.0 mi South 8.1 mph - N/A   Mostly Cloudy
2:54 PM 73.0 °F 64.0 °F 73% 30.07 in 10.0 mi South 5.8 mph - N/A   Mostly Cloudy
3:54 PM 73.0 °F 64.9 °F 76% 30.07 in 10.0 mi Calm Calm - N/A   Mostly Cloudy
4:54 PM 70.0 °F 64.0 °F 81% 30.08 in 10.0 mi North 3.5 mph - 0.00 in Rain Light Rain
5:30 PM 69.8 °F 64.4 °F 83% 30.09 in 10.0 mi SE 6.9 mph - 0.00 in   Mostly Cloudy
5:54 PM 69.8 °F 64.4 °F 83% 30.09 in 10.0 mi SE 5.8 mph - N/A   Mostly Cloudy
6:08 PM 68.0 °F 64.4 °F 88% 30.10 in 10.0 mi SE 5.8 mph - N/A   Mostly Cloudy
6:54 PM 66.0 °F 64.0 °F 93% 30.10 in 9.0 mi SSE 6.9 mph - N/A   Scattered Clouds
7:12 PM 66.2 °F 64.4 °F 94% 30.11 in 10.0 mi South 4.6 mph - N/A   Mostly Cloudy
7:43 PM 66.2 °F 64.4 °F 94% 30.11 in 10.0 mi SSE 8.1 mph - N/A   Overcast
7:54 PM 66.9 °F 64.0 °F 90% 30.10 in 10.0 mi SSE 11.5 mph - 0.00 in Rain Light Rain
8:38 PM 66.2 °F 64.4 °F 94% 30.12 in 10.0 mi SSE 6.9 mph - N/A   Mostly Cloudy
8:54 PM 66.0 °F 64.0 °F 93% 30.11 in 10.0 mi SSE 8.1 mph - 0.00 in   Mostly Cloudy
9:54 PM 66.0 °F 64.0 °F 93% 30.11 in 9.0 mi SSE 8.1 mph - 0.00 in Rain Light Rain
10:18 PM 66.2 °F 64.4 °F 94% 30.11 in 9.0 mi SSE 6.9 mph - 0.00 in   Overcast
10:35 PM 66.2 °F 64.4 °F 94% 30.11 in 8.0 mi SSE 8.1 mph - 0.00 in Rain Light Rain
10:51 PM 66.2 °F 64.4 °F 94% 30.11 in 6.0 mi SSE 8.1 mph - 0.00 in Rain Light Rain
10:54 PM 66.0 °F 64.0 °F 93% 30.11 in 6.0 mi SSE 8.1 mph - 0.00 in Rain Light Rain
11:13 PM 66.2 °F 64.4 °F 94% 30.11 in 4.0 mi South 9.2 mph - 0.01 in Rain Light Rain
11:40 PM 66.2 °F 64.4 °F 94% 30.11 in 3.0 mi South 8.1 mph - 0.05 in Rain Light Rain
11:54 PM 66.0 °F 64.9 °F 96% 30.10 in 3.0 mi SSE 9.2 mph - 0.08 in Rain Rain